Current weather by "City, St" or "zip code"  
 

Current Conditions: BECKLEY

Clear


51.1 F

Last Updated on Sep 28 2022, 06:51 PM EDT
Humidity: 68%
Wind Speed: 5.8 mph
Barometer 30.32 in
Dewpoint: 41.0 F
Visibility: 10.00 mi
Precip: --
Heat Index: NA
Wind Chill: NA
Current conditions at:

BECKLEY (KBKW)

Lat: 37.78 Lon: 81.12

Local Radar Image active severe weather and emergency alerts image image weather storm and storm spotter reports image weather observation monitoring service image
Local
Radar
Active
Alerts
Storm Reports Obs
Monitoring

Sign-up For Email & Text Message Weather Alert Notification Services



Advertise Here

Observation History for BECKLEY


Time Wind
(mph)
Vis
(mi)
Weather Precip (in) Temperature (F) Relative
Humidity
Wind
Chill
(F)
Heat
Index
(F)
Pressure
Air Dwpt altimeter
(in)
sea level
(mb)
Rmks
06:51 PM EDT 5.8 10.00 Clear -- 51.1 41.0 68% NA NA 30.32 1026.8
05:51 PM EDT 9.2 10.00 Partly Cloudy -- 53.1 39.9 61% NA NA 30.32 1026.8
04:51 PM EDT 9.2 10.00 Mostly Clear -- 52.0 37.9 59% NA NA 30.32 1026.8
03:51 PM EDT 12.8 10.00 Mostly Cloudy -- 55.9 37.0 49% NA NA 30.31 1026.4
02:51 PM EDT 11.4 10.00 Mostly Cloudy -- 55.0 36.0 48% NA NA 30.31 1026.4
01:51 PM EDT 12.8 10.00 Mostly Cloudy -- 53.1 36.0 52% NA NA 30.31 1026.4
12:51 PM EDT 9.2 10.00 Mostly Clear -- 55.0 37.0 51% NA NA 30.29 1025.7
11:51 AM EDT 11.4 10.00 Partly Cloudy -- 52.0 37.9 59% NA NA 30.30 1026.1
10:51 AM EDT 8.1 10.00 Partly Cloudy -- 48.9 39.0 69% 45.5 NA 30.29 1025.7
09:51 AM EDT 4.7 10.00 Clear -- 48.0 41.0 77% 46.0 NA 30.27 1025.1
08:51 AM EDT 0.0 10.00 Clear -- 45.0 39.9 82% NA NA 30.25 1024.4
07:51 AM EDT 0.0 10.00 Clear -- 37.9 36.0 92% NA NA 30.23 1023.7
06:51 AM EDT 0.0 10.00 Clear -- 37.9 35.1 89% NA NA 30.21 1023.0
05:51 AM EDT 0.0 10.00 Clear -- 37.0 36.0 96% NA NA 30.21 1023.0
04:51 AM EDT 0.0 10.00 Clear -- 37.0 35.1 92% NA NA 30.20 1022.7
03:51 AM EDT 0.0 10.00 Clear -- 39.0 36.0 89% NA NA 30.19 1022.4
02:51 AM EDT 0.0 10.00 Clear -- 39.0 36.0 89% NA NA 30.19 1022.4
01:51 AM EDT 0.0 10.00 Clear -- 41.0 37.0 86% NA NA 30.18 1022.0
12:51 AM EDT 0.0 10.00 Clear -- 42.1 37.9 85% NA NA 30.18 1022.0
11:51 PM EDT 0.0 10.00 Clear -- 44.1 39.0 82% NA NA 30.19 1022.4
10:51 PM EDT 0.0 10.00 Clear -- 44.1 39.0 82% NA NA 30.17 1021.7
09:51 PM EDT W 3.4 10.00 Mostly Clear -- 48.0 39.0 71% 47.1 NA 30.15 1021.0
08:51 PM EDT W 3.4 10.00 Partly Cloudy -- 50.0 37.9 63% NA NA 30.13 1020.3
07:51 PM EDT 3.4 10.00 Mostly Clear -- 51.1 37.9 61% NA NA 30.12 1019.7

Regional Weather Observation


LOGAN CNTY (K6L4)

Mostly Cloudy
55.4 F

()


F

CHARLESTON (KCRW)

Partly Cloudy
55.9 F

BLUEFIELD (KBLF)

Partly Cloudy
48.9 F

LEWISBURG/GREENB (KLWB)

Clear
53.6 F

RICHLANDS (KJFZ)

Partly Cloudy
49.1 F

Advertise Here


Advertise Here